{"data":{"norad_id":68645,"epoch":"2026-09-19T22:02:00.378816Z","epoch_age_seconds":113451,"freshness":"FRESH","line1":"1 68645U 26075K   26262.91805994  .00000040  00000+0  43784-4 0  9995","line2":"2 68645  88.9866 311.3414 0002313  98.7492 261.3922 13.51024753 22595","mean_motion":13.51024753,"eccentricity":0.0002313,"inclination_deg":88.9866,"raan_deg":311.3414,"arg_perigee_deg":98.7492,"mean_anomaly_deg":261.3922,"bstar":4.3784e-5,"rev_number":2259,"period_min":106.58575994277,"perigee_km":1066.7682225593,"apogee_km":1070.2130324997,"semimajor_km":7446.6276275295,"source":"CELESTRAK","updated_at":"2026-09-20T09:00:24.370205Z"}}